    Orbital elements:
    2015 SV2                                                 Earth MOID = 0.0912 AU
    Epoch 2019 Apr. 27.0 TT = JDT 2458600.5                 MPC
    M 315.22926              (2000.0)            P               Q
    n   0.25368200     Peri.  143.93936     +0.40267777     -0.90858658
    a   2.4713994      Node   282.08186     +0.81098986     +0.41036839
    e   0.5733090      Incl.    6.51795     +0.42443617     +0.07789868
    P   3.89           H   20.8           G   0.15           U   0
    Residuals in seconds of arc
    110728 F51  0.1-  0.1+    151104 H21  0.0   0.1+    151210 H21  0.0   0.1+
    110728 F51  0.3-  0.2+    151104 H21  0.0   0.1+    151210 H21  0.1-  0.1+
    110728 F51  0.2+  0.4+    151104 H21  0.1+  0.0     151210 H21  0.1-  0.0
    110821 F51  0.1+  0.0     151104 H21  0.0   0.1+    151210 H21  0.1-  0.1+
    110821 F51  0.1-  0.0     151104 H21  0.1+  0.0     151210 H21  0.1-  0.0
    110821 F51  0.2-  0.1-    151104 K14  0.0   0.2+    151210 H21  0.0   0.1+
    110821 F51  0.1+  0.2+    151104 K14  0.0   0.1-    151210 H21  0.0   0.1+
    150725 F51  0.1-  0.0     151106 G45  0.4+  0.1+    151210 H21  0.0   0.1+
    150725 F51  0.0   0.1+    151106 G45  0.0   0.4-    151211 H21  0.0   0.0
    150828 F51  0.2-  0.0     151106 G45  0.1-  0.3-    151211 H21  0.1+  0.0
    150921 G45  0.2-  0.1+    151106 G45  0.0   0.1+    151211 H21  0.1+  0.1-
    150921 G45  0.1+  0.2-    151106 G45  0.4-  0.2-    151211 H21  0.0   0.0
    150921 G45  0.2-  0.0     151106 560  0.0   0.1+    151211 H21  0.1+  0.2-
    150921 G45  0.2+  0.0     151106 560  0.0   0.0     151211 H21  0.1+  0.1+
    150921 246  0.2+  0.1+    151106 560  0.0   0.1-    151211 H21  0.0   0.1-
    150921 246  0.1+  0.0     151107 A53  0.2+  0.1+    151211 H21  0.1+  0.0
    150921 246  0.0   0.2+    151107 A53  0.6+  0.2+    151211 H21  0.0   0.1-
    150921 246  0.6-  0.2-    151107 A53  0.1+  0.1+    151211 H21  0.1+  0.1+
    150921 246  0.1+  0.0     151107 A53  0.3+  0.4+    151211 H21  0.1+  0.1-
    150921 246  0.0   1.1+    151108 H21  0.2-  0.1+    151211 H21  0.0   0.1-
    150921 246  0.6-  0.8+    151108 H21  0.1+  0.1+    151211 H21  0.1+  0.1-
    150921 246 (1.5-  0.5+)   151108 H21  0.0   0.1-    151211 H21  0.0   0.1-
    150921 B18  0.0   0.1+    151108 H21  0.1-  0.0     151211 H21  0.1+  0.1+
    150921 B18  0.1-  0.1-    151108 H21  0.1+  0.2-    151211 926  0.1+  0.2+
    150921 B18  0.0   0.0     151108 H21  0.0   0.1+    151211 926  0.1+  0.2+
    150921 B18  0.0   0.0     151108 H21  0.1-  0.1-    151211 926  0.0   0.4+
    150921 B18  0.1-  0.2-    151108 H21  0.0   0.1-    151213 926  0.0   0.3+
    150922 H36  0.2-  0.5+    151108 H21  0.2-  0.0     151213 926  0.0   0.2+
    150922 H36  0.2-  0.1-    151108 H21  0.1+  0.3+    151213 926  0.1-  0.1+
    150922 H36  0.2-  0.0     151108 H21  0.1+  0.0     151213 L04  0.0   0.1+
    150922 H36  0.3-  0.3-    151108 H21  0.1+  0.3+    151213 L04  0.2+  0.2+
    150922 H21  0.0   0.0     151108 H21  0.2+  0.1+    151213 L04  0.1+  0.1-
    150922 H21  0.0   0.1+    151108 130  0.0   0.0     151214 926  0.1-  0.1-
    150922 H21  0.2-  0.1-    151108 130  0.3-  0.1-    151214 926  0.0   0.0
    150922 B18  0.3-  0.1-    151108 130  0.0   0.1+    151214 926  0.2-  0.0
    150922 B18  0.2-  0.1-    151108 130  0.2-  0.1-    151214 K38  0.0   0.1-
    150922 B18  0.4-  0.0     151108 A48  0.3-  0.1-    151214 K38  0.0   0.1-
    150922 B18  0.2-  0.2-    151108 A48  0.4-  0.1-    151215 K38  0.2+  0.2-
    150922 J95  0.5-  0.5+    151108 A48  0.0   0.3-    151215 H45  0.1-  0.1-
    150922 J95  0.3-  0.0     151108 A48  0.1-  0.0     151215 H45  0.1-  0.0
    150922 J95  0.1-  0.5-    151109 H21  0.1-  0.1-    151215 H45  0.1-  0.1-
    150922 585  0.1+  0.2-    151109 H21  0.1+  0.1+    151215 H45  0.1-  0.2-
    150922 585  0.4+  0.1+    151109 H21  0.2-  0.2+    151215 H45  0.1-  0.2-
    150923 585  1.4-  0.5+    151109 H21  0.3-  0.0     151215 H45  0.0   0.2-
    150923 585  1.1-  0.2+    151109 H21  0.2-  0.1-    151215 926  0.1-  0.4+
    150923 926  0.3-  0.0     151109 H21  0.3-  0.1-    151215 926  0.1-  0.2+
    150923 926  0.2-  0.3+    151109 H21  0.2-  0.1-    151215 926  0.0   0.2+
    150923 926  0.0   0.3+    151109 K14  0.1+  0.0     151216 H21  0.0   0.1+
    150923 926  0.2+  0.1-    151109 K14  0.1-  0.1+    151216 H21  0.1-  0.2+
    150923 926  0.2+  0.2+    151109 K14  0.1-  0.0     151216 H21  0.0   0.1+
    150923 G45  0.8+  0.3+    151109 K14  0.1-  0.1+    151216 H21  0.1-  0.1+
    150923 926  0.3+  0.2+    151109 K14  0.2+  0.5+    151216 H21  0.1-  0.1+
    150923 G45  0.4-  0.1+    151110 H21  0.0   0.0     151216 H21  0.1-  0.0
    150923 G45  0.4-  0.2+    151110 H21  0.0   0.1+    151216 H21  0.1-  0.1+
    150923 G45  0.1-  0.2+    151110 H21  0.1-  0.0     151216 H21  0.1-  0.2+
    150923 G45  0.1+  0.0     151110 H21  0.0   0.0     151216 H21  0.1-  0.2+
    150923 754  0.0   0.1+    151110 H21  0.1-  0.2+    151216 H21  0.1-  0.2+
    150923 754  0.2-  0.3-    151110 H21  0.0   0.1+    151216 H21  0.0   0.1+
    150923 754  0.0   0.1+    151110 H21  0.1+  0.0     151216 H21  0.1-  0.1+
    150923 754  0.3+  0.2+    151110 H21  0.1+  0.1+    151216 H21  0.1-  0.2+
    150923 754  0.2+  0.2-    151110 H21  0.2-  0.1+    151216 926  0.2-  0.1+
    150923 754  0.1-  0.0     151110 H21  0.1-  0.1+    151216 926  0.1-  0.1+
    150923 754  0.2+  0.2-    151110 204  0.1+  0.1+    151216 926  0.2-  0.1+
    150924 H21  0.3-  0.1+    151110 204  0.2+  0.1-    151217 H45  0.1+  0.5-
    150924 H21  0.2-  0.1+    151110 204  0.1-  0.1-    151217 H45  0.1+  0.4-
    150924 H21  0.2-  0.0     151111 H21  0.1-  0.1-    151217 H45  0.1-  0.1-
    150924 H21  0.1-  0.2-    151111 H21  0.1-  0.0     151217 H45  0.0   0.2-
    150924 H21  0.3-  0.1-    151111 H21  0.2-  0.0     151217 H45  0.1+  0.3-
    150924 H21  0.3-  0.1-    151111 H21  0.2-  0.1-    151217 H45  0.1+  0.3-
    150924 H21  0.3-  0.2+    151111 H21  0.2-  0.2-    151217 926  0.1+  0.1-
    150925 H21  0.1-  0.2+    151111 H21  0.0   0.0     151217 926  0.1-  0.1+
    150925 H21  0.2+  0.1+    151111 H21  0.1+  0.1-    151217 926  0.1+  0.1+
    150925 H21  0.0   0.0     151111 H21  0.0   0.2-    151217 A53  0.3+  0.4+
    150925 H21  0.2-  0.0     151111 H21  0.0   0.0     151217 A53  0.4+  0.5+
    150925 H21  0.0   0.1+    151111 246  1.1-  0.9-    151217 A53  0.2+  0.5+
    150930 926  0.0   0.3-    151111 246  0.2-  0.0     151218 A53  0.3+  0.4+
    150930 926  0.0   0.3+    151111 246  0.6-  0.4-    151218 703  0.1+  0.0
    150930 926  0.1-  0.3-    151113 926  0.3+  0.4+    151218 703  0.5-  0.1-
    150930 705  0.1+  0.3-    151113 926  0.0   0.1-    151218 703  0.3-  0.6+
    150930 705  0.0   0.4-    151113 926  0.1-  0.2+    151218 703  0.4+  0.4-
    150930 705  0.0   0.2-    151113 926  0.0   0.1-    151218 H21  0.1-  0.0
    151002 H21  0.3+  0.2+    151113 926  0.5-  0.7+    151218 H21  0.1-  0.1+
    151002 H21  0.3+  0.2+    151113 926  0.4+  0.2-    151218 H21  0.1-  0.0
    151002 703  0.2-  0.2-    151113 J69  0.0   0.2+    151218 H21  0.2-  0.0
    151002 H21  0.2+  0.0     151113 J69  0.1-  0.1-    151218 H21  0.0   0.1+
    151002 703  0.5+  0.2+    151113 J69  0.2-  0.1-    151218 H21  0.2-  0.1+
    151002 H21  0.0   0.1+    151114 926  0.1-  0.2-    151218 H21  0.0   0.1-
    151002 703  0.5-  0.9-    151114 926  0.3+  0.1-    151218 H21  0.2-  0.0
    151002 H21  0.1+  0.2+    151114 926  0.1-  0.0     151218 H21  0.1-  0.0
    151002 H21  0.4+  0.2+    151115 K14  0.3+  0.3-    151218 H21  0.2-  0.0
    151002 703  0.1+  1.1-    151115 K14  0.1-  0.1+    151218 H21  0.2-  0.0
    151002 H21  0.1+  0.1-    151115 K14  0.2+  0.1-    151218 H21  0.0   0.1-
    151003 246  0.1-  0.9-    151115 B49  0.3-  0.2+    151218 H21  0.0   0.0
    151003 246  0.4-  0.3-    151115 B49  0.3-  0.1-    151218 926  0.1+  0.3-
    151003 246  0.1-  0.4-    151115 B49  0.2+  0.3-    151218 926  0.2+  0.1+
    151003 246  0.2+  0.3+    151115 K38  0.1-  0.3+    151218 926  0.3+  0.4-
    151003 246  0.2+  0.1+    151115 K38  0.1+  0.1-    151219 H21  0.1+  0.3+
    151003 246  0.2+  0.2+    151115 K38  0.4+  0.2-    151219 H21  0.1+  0.2+
    151003 246  0.1+  0.0     151115 K38  0.1-  0.1+    151219 H21  0.1+  0.2+
    151005 H21  0.1-  0.2+    151116 H21  0.1+  0.1+    151219 H21  0.1+  0.3+
    151005 H21  0.0   0.0     151116 H21  0.0   0.0     151219 H21  0.1+  0.3+
    151005 H21  0.0   0.1+    151116 H21  0.0   0.1+    151219 H21  0.0   0.5+
    151005 H21  0.3-  0.2-    151118 926  0.1-  0.3+    151219 H21  0.1+  0.5+
    151007 H21  0.2+  0.1+    151118 926  0.2-  0.0     151219 H21  0.0   0.3+
    151007 H21  0.1+  0.1+    151118 926  0.2+  0.1-    151219 H21  0.2+  0.3+
    151007 H21  0.1+  0.3+    151119 926  0.2-  0.1-    151219 H21  0.1+  0.3+
    151007 H21  0.3+  0.2+    151119 926  0.5-  0.3-    151219 H21  0.2+  0.2+
    151007 H21  0.1-  0.2+    151119 926  0.2+  0.3-    151219 H21  0.1+  0.3+
    151008 926  0.1-  0.2+    151120 926  0.2+  0.0     151219 H21  0.1+  0.1+
    151008 926  0.3-  0.1-    151120 926  0.2+  0.3+    151219 H21  0.2+  0.3+
    151008 926  0.3-  0.1+    151120 926  0.1+  0.2-    151219 H45  0.4-  0.0
    151008 H21  0.2+  0.1-    151120 J69  0.1+  0.3+    151219 H45  0.2-  0.2-
    151008 H21  0.3-  0.0     151120 J69  0.0   0.1+    151219 H45  0.1-  0.1-
    151008 H21  0.1+  0.1+    151120 J69  0.1+  0.1+    151219 H45  0.1-  0.3-
    151009 K14  0.5-  0.1+    151121 926  0.2+  0.4-    151219 H45  0.1-  0.1-
    151009 K14  0.2-  0.3+    151121 926  0.1+  0.1+    151219 H45  0.2-  0.2-
    151009 K14  0.3+  0.1-    151121 926  0.1-  0.0     151219 G34  0.7+  0.4-
    151009 K14  0.2+  0.6-    151122 926  0.5+  0.2-    151219 G34  0.5+  0.4-
    151010 926  0.4+  0.6-    151122 926  0.6-  0.1-    151219 G34  0.6+  0.5-
    151010 926  0.2+  0.7-    151122 926  0.2+  0.3-    151219 G34  0.7+  0.9-
    151010 926  0.1+  0.7-    151123 926  0.1-  0.1-    151219 G34  0.9+  0.5-
    151010 H21  0.0   0.1-    151123 926  0.5+  0.3+    151221 926  0.1+  0.1-
    151010 H21  0.1+  0.2-    151123 926  0.4-  0.3+    151221 926  0.2-  0.0
    151010 H21  0.0   0.3-    151123 H21  0.1+  0.4+    151221 926  0.2-  0.2-
    151010 H21  0.0   0.3-    151123 H21  0.2+  0.3+    151227 K14  0.1+  0.3+
    151010 H21  0.2-  0.3-    151123 H21  0.2+  0.5+    151227 K14  0.2+  0.2+
    151010 H21  0.1-  0.3-    151123 H21  0.2-  0.4+    151227 K14  0.5+  0.1+
    151010 122  0.8+  0.1+    151123 H21  0.1+  0.4+    151229 D29  0.5+  0.0
    151010 122  1.2+  0.1-    151123 H21  0.0   0.4+    151229 D29  0.3+  0.2-
    151010 122  0.5+  0.6+    151123 H21  0.2-  0.8+    151229 D29  0.0   0.1+
    151011 703  0.2+  0.5+    151123 H21  0.2-  0.7+    151230 703  0.4-  0.4+
    151011 703  0.1-  0.0     151124 H21  0.1+  0.0     151230 703  0.2-  0.0
    151011 703  0.1+  0.8-    151124 H21  0.0   0.1+    151230 703  0.0   0.1+
    151011 703  0.2-  0.6+    151124 H21  0.2+  0.0     151230 703  0.0   0.2-
    151011 703  0.1-  0.0     151124 H21  0.0   0.1-    151231 D29  0.2-  0.3+
    151011 703  1.0+  0.0     151124 H21  0.1-  0.1+    151231 D29  0.2+  0.2-
    151011 703  0.4-  0.3+    151124 H21  0.1+  0.1+    151231 D29  0.1-  0.1+
    151011 703  0.6+  0.1+    151124 H21  0.1-  0.1+    160101 T05  0.7+  0.5-
    151011 G96  0.1+  0.0     151124 H21  0.0   0.0     160101 T05  0.0   0.0
    151011 G96  0.0   0.4+    151124 H21  0.1-  0.0     160101 T05  0.3+  0.5-
    151011 G96  0.2+  0.1-    151124 H21  0.1+  0.0     160101 T05  0.6-  0.3-
    151011 G96  0.1+  0.2+    151124 H21  0.0   0.0     160102 H45  0.2-  0.1+
    151013 H21  0.3-  0.1-    151124 H21  0.1+  0.0     160102 H45  0.2+  0.5-
    151013 H21  0.3-  0.1+    151124 H21  0.0   0.0     160102 H45  0.1+  0.0
    151013 H21  0.2-  0.0     151124 H21  0.1+  0.0     160102 H45  0.1+  0.2+
    151013 H21  0.1-  0.2-    151124 H21  0.1+  0.2-    160102 H45  0.5+  0.3-
    151013 H21  0.1+  0.0     151124 H21  0.1+  0.4-    160102 H45  0.0   0.6-
    151019 A24  0.5+  0.2+    151124 926  0.0   0.2+    160103 H21  0.0   0.0
    151019 A24  0.1-  0.2+    151124 926  0.0   0.1-    160103 H21  0.1+  0.0
    151019 A24  0.1+  0.2+    151124 926  0.0   0.1-    160103 H21  0.1+  0.0
    151019 A24  0.4+  0.3+    151125 H21  0.2+  0.1-    160103 H21  0.1+  0.0
    151019 A24  0.5+  0.4+    151125 H21  0.1+  0.1-    160103 H21  0.1-  0.1+
    151019 A24  0.4+  0.4+    151125 H21  0.1-  0.1-    160103 H21  0.0   0.1+
    151019 A24  0.3+  0.4+    151125 H21  0.1-  0.2-    160103 D29  0.0   0.1+
    151019 A24  0.7+  0.5+    151125 H21  0.2+  0.2-    160103 D29  0.0   0.2+
    151019 204  0.2-  0.0     151125 H21  0.2-  0.3-    160103 D29  0.0   0.1+
    151019 204  0.2-  0.1-    151125 H21  0.0   0.1-    160104 G45  0.0   0.1-
    151019 204  0.1-  0.2+    151125 H21  0.2-  0.2-    160104 G45  0.1-  0.1-
    151020 926  0.5-  0.3+    151125 H21  0.2+  0.3-    160104 G45  0.1+  0.2+
    151020 926  0.5+  0.2+    151125 H21  0.2-  0.2-    160104 G45  0.0   0.0
    151020 926  0.6-  0.1+    151125 H21  0.2-  0.3-    160104 G45  0.3+  0.0
    151022 H21  0.2+  0.2+    151125 H21  0.1+  0.3-    160104 F51  0.0   0.0
    151022 H21  0.3+  0.3+    151125 H21  0.0   0.1-    160104 F51  0.0   0.0
    151022 H21  0.2+  0.3+    151128 926  0.1-  0.0     160104 F51  0.0   0.1+
    151022 H21  0.2+  0.2+    151128 926  0.3+  0.1+    160105 H45  0.4-  0.3+
    151022 H21  0.1+  0.3+    151128 926  0.3-  0.4-    160105 H45  0.2-  0.1-
    151022 H21  0.2+  0.2+    151129 926  0.1+  0.2-    160105 H45  0.6-  0.0
    151023 H21  0.2+  0.3-    151129 926  0.0   0.4-    160105 H45  0.1+  0.3-
    151023 H21  0.0   0.1-    151129 926  0.0   0.3-    160105 H45  0.0   0.5-
    151023 H21  0.1+  0.1-    151129 K14  0.2-  0.0     160105 H45  0.2-  0.2-
    151023 H21  0.1+  0.3-    151129 K14  0.1+  0.3-    160105 F51  0.1+  0.0
    151023 H21  0.1+  0.1-    151129 K14  0.0   0.1-    160109 G36  0.2+  0.1+
    151023 H21  0.1-  0.0     151129 K14  0.1-  0.0     160110 G36  0.0   0.1-
    151023 H21  0.2-  0.1+    151129 K14  0.0   0.1-    160110 G36  0.2+  0.0
    151023 H21  0.1-  0.1+    151129 K14  0.1+  0.1-    160111 H45  0.4+  0.1-
    151023 H21  0.0   0.1+    151130 926  0.0   0.3-    160111 H45  0.0   0.5-
    151024 G45  0.1+  0.1+    151130 926  0.3-  0.2-    160111 H45  0.0   0.1+
    151024 703  0.5+  0.1+    151130 926  0.0   0.0     160111 H45  0.2-  0.3-
    151024 703  0.0   0.7-    151201 926  0.0   0.2+    160111 H45  0.1-  0.2-
    151024 G45  0.0   0.0     151201 926  0.1-  0.1+    160111 H45  0.1-  0.1-
    151024 703  0.6+  0.2-    151201 926  0.0   0.2+    160112 F51  0.0   0.1+
    151024 G45  0.1+  0.2+    151202 L04  0.1-  0.4-    160112 F51  0.0   0.1+
    151024 703  0.7-  0.3-    151202 L04  0.3+  0.0     160112 H15  0.2+  0.0
    151024 G45  0.1-  0.1+    151202 L04  0.2+  0.1+    160112 F51  0.0   0.1+
    151024 G45  0.0   0.4+    151202 H21  0.0   0.0     160112 H15  0.3+  0.2-
    151024 F51  0.0   0.0     151202 H21  0.1+  0.0     160112 F51  0.0   0.1+
    151024 G45  0.1+  0.3-    151202 H21  0.0   0.1-    160112 H15  0.1+  0.1+
    151024 G45 (0.2+  1.8+)   151202 H21  0.1+  0.1-    160112 691  0.1-  0.1+
    151024 F51  0.0   0.0     151202 H21  0.0   0.0     160112 691  0.0   0.2+
    151024 F51  0.0   0.0     151202 H21  0.1+  0.0     160112 691  0.0   0.2+
    151025 G45  0.3-  0.1-    151202 H21  0.1+  0.1-    160112 D29  0.3-  0.3+
    151025 G45  0.5+  0.9-    151202 H21  0.2+  0.1+    160112 D29  0.2-  0.4-
    151025 G45  0.1-  0.0     151202 H21  0.1-  0.1+    160112 D29  0.6-  0.1-
    151025 G45  0.0   0.2+    151202 H21  0.1-  0.1+    160113 G45  0.0   0.1-
    151025 G45  1.1+  0.2+    151202 H21  0.1+  0.0     160113 G45  0.0   0.3+
    151026 H21  0.3-  0.2-    151202 H21  0.1+  0.1-    160113 G45  0.0   0.2+
    151026 H21  0.2-  0.0     151202 H21  0.2+  0.1+    160113 G45  0.5+  0.1-
    151026 H21  0.2-  0.2-    151202 H21  0.1+  0.1-    160113 G45  0.0   0.1-
    151026 H21  0.0   0.2-    151203 703  0.1-  0.1+    160114 J43  0.0   0.2+
    151026 H21  0.1-  0.1+    151203 703  1.0-  0.8-    160114 J43  0.1+  0.2+
    151026 H21  0.0   0.1-    151203 703  0.1-  0.2-    160114 J43  0.1+  0.3+
    151026 F51  0.0   0.1-    151203 926  0.2-  0.2+    160114 J43  0.1+  0.2+
    151026 F51  0.0   0.0     151203 926  0.2-  0.0     160114 H45  0.3-  0.3-
    151026 F51  0.0   0.1-    151203 926  0.0   0.2+    160114 H45  0.5-  0.5-
    151026 F51  0.0   0.1-    151203 H45  0.1-  0.1-    160114 H45  0.3-  0.0
    151026 F51  0.1+  0.0     151203 H45  0.2-  0.2-    160114 H45  0.1-  0.3-
    151026 F51  0.0   0.0     151203 H45  0.2-  0.4-    160114 H45  0.2-  0.3-
    151026 F51  0.0   0.1+    151203 H45  0.1-  0.1-    160114 H45  0.4-  0.0
    151026 F51  0.0   0.0     151203 H45  0.0   0.5-    160115 J43  0.0   0.0
    151027 926  0.5+  0.1+    151203 H45  0.3-  0.2-    160115 J43  0.1-  0.0
    151027 926  0.6-  0.2+    151203 H45  0.2+  0.1+    160115 J43  0.0   0.0
    151027 926  0.2+  0.6-    151203 H45  0.1+  0.2-    160115 H21  0.0   0.1-
    151027 461  0.0   0.2+    151203 C47  0.2+  0.0     160115 H21  0.1+  0.0
    151027 461  0.1+  0.2+    151203 C47  0.1+  0.1+    160115 H21  0.1+  0.0
    151027 461  0.0   0.2+    151203 C47  0.2+  0.2+    160115 H21  0.2+  0.3+
    151031 926  0.1+  0.1-    151203 C47  0.0   0.0     160115 H21  0.1+  0.1+
    151031 926  0.0   0.3+    151203 C47  0.0   0.1+    160115 H21  0.1-  0.1+
    151031 926  0.9+  0.3+    151203 C47  0.0   0.3+    160115 H21  0.0   0.1+
    151101 926  0.5+  0.3-    151205 H45  0.1-  0.3-    160116 703  0.8-  0.2-
    151101 926  0.1+  0.1+    151205 H45  0.1-  0.2-    160116 703  0.4+  0.7-
    151101 926  0.0   0.3-    151205 H45  0.2-  0.3-    160116 H45  0.1+  0.2-
    151101 113  0.1-  0.2-    151205 H45  0.1-  0.2-    160116 H45  0.3+  0.3-
    151101 113  0.2-  0.1-    151205 H45  0.1-  0.1-    160116 H45  0.1+  0.2-
    151101 113  0.5-  0.5-    151205 H45  0.4-  0.2-    160116 H45  0.1+  0.2-
    151101 113  0.6+  0.1+    151205 I76  0.4-  0.2+    160116 H45  0.0   0.0
    151101 246  0.1+  0.4+    151205 I76  0.2-  0.2+    160116 H45  0.1+  0.3+
    151101 C77  0.2-  0.0     151205 I76  0.0   0.1+    160116 160  0.1+  0.1+
    151101 246  0.1-  0.4+    151205 I76  0.1+  0.2+    160116 160  0.1-  0.6+
    151101 246  0.2+  0.4+    151205 I76  0.1-  0.3+    160116 160  0.0   0.3+
    151101 246  0.1-  0.4+    151205 I76  0.1-  0.1+    160117 H45  0.0   0.0
    151101 246  0.5-  0.7+    151205 I76  0.2-  0.3+    160117 H45  0.0   0.6-
    151101 246  0.3+  0.3+    151205 I76  0.4-  0.3+    160117 H45  0.1+  0.3-
    151101 246  0.0   0.2+    151207 926  0.4-  0.3+    160117 H45  0.0   0.3-
    151101 246  0.2-  0.6+    151207 926  0.3-  0.2+    160117 H45  0.1+  0.1-
    151101 C77  0.0   0.0     151207 926  0.6-  0.2+    160117 H45  0.2+  0.3-
    151101 C77  0.1+  0.5-    151207 H45  0.0   0.2-    160117 160  0.6+  0.2+
    151102 H21  0.1+  0.0     151207 H45  0.0   0.2-    160118 160  0.6+  0.5+
    151102 H21  0.0   0.0     151207 H45  0.1+  0.2-    160118 160  0.5+  0.8+
    151102 H21  0.0   0.0     151207 H45  0.1-  0.2-    160121 703  0.3+  0.2-
    151102 H21  0.0   0.0     151207 H45  0.1-  0.1-    160121 703  0.3-  0.1+
    151102 H21  0.0   0.1+    151207 H45  0.1+  0.2-    160121 703  0.0   0.7+
    151102 C47  0.1+  0.0     151209 H45  0.2+  0.2-    160121 703  0.3-  0.4+
    151102 C47  0.1+  0.1-    151209 H45  0.0   0.0     160121 160  0.2-  0.4+
    151102 C47  0.1+  0.1+    151209 H45  0.1+  0.3-    160121 160  0.2-  0.2+
    151102 C47  0.1+  0.0     151209 H45  0.1-  0.6-    160121 160  0.0   0.1+
    151102 C47  0.0   0.2-    151209 H45  0.1-  0.4-    160131 F51  0.0   0.0
    151103 H21  0.1-  0.1-    151209 H45  0.4+  0.5-    160131 F51  0.0   0.1+
    151103 H21  0.0   0.1+    151209 H45  0.2-  0.4-    160212 F51  0.1-  0.1+
    151103 H21  0.1-  0.0     151209 H45  0.1+  0.3-    160212 F51  0.0   0.1+
    151103 H21  0.2-  0.1+    151209 T05  0.1+  0.4-    160212 F51  0.1+  0.1+
    151103 H45  0.1-  0.1+    151209 T05  0.2-  0.3+    160212 F51  0.0   0.1+
    151103 H45  0.2-  0.1-    151209 T05  0.2+  0.3-    160228 F51  0.0   0.0
    151103 H21  0.1+  0.2+    151209 T05  0.1+  0.1-    160228 F51  0.0   0.1+
    151103 H45  0.3-  0.1-    151210 H21  0.1-  0.1+    160228 F51  0.1-  0.1-
    151103 H45  0.1-  0.2-    151210 H21  0.1+  0.2+    160228 F51  0.1-  0.0
    151103 H45  0.0   0.3-    151210 H21  0.1+  0.2+
    151103 H45  0.1-  0.2-    151210 H21  0.0   0.1+
    
